| time (UTC) | temp F | wind direction | speed MPH | gust MPH | rain 1hr in | rain 24hr in | rain mn in | humidity % | barometer mb |
| 20260507234039 | 62 | 2 | 27.0 | 39.0 | 0.00 | 0.06 | 0.01 | 87 | 1011.3 |
| 20260507233033 | 62 | 7 | 27.0 | 42.0 | 0.00 | 0.06 | 0.01 | 88 | 1011.6 |
| 20260507232029 | 62 | 358 | 27.0 | 39.0 | 0.00 | 0.06 | 0.01 | 89 | 1011.5 |
| 20260507231026 | 62 | 6 | 25.0 | 37.0 | 0.00 | 0.06 | 0.01 | 89 | 1011.7 |
| 20260507230024 | 62 | 346 | 23.0 | 37.0 | 0.00 | 0.06 | 0.01 | 88 | 1012.3 |
| 20260507225018 | 62 | 344 | 25.0 | 37.0 | 0.00 | 0.06 | 0.01 | 89 | 1012.6 |
| 20260507224016 | 62 | 9 | 24.0 | 34.0 | 0.00 | 0.06 | 0.01 | 89 | 1012.8 |
| 20260507223113 | 62 | 11 | 25.0 | 40.0 | 0.00 | 0.06 | 0.01 | 90 | 1012.9 |
| 20260507222131 | 62 | 355 | 22.0 | 33.0 | 0.00 | 0.06 | 0.01 | 90 | 1013.2 |
| 20260507221105 | 62 | 347 | 24.0 | 32.0 | 0.00 | 0.06 | 0.01 | 89 | 1013.4 |
| 20260507220104 | 62 | 348 | 28.0 | 38.0 | 0.00 | 0.06 | 0.01 | 90 | 1013.5 |
| 20260507215058 | 62 | 351 | 27.0 | 38.0 | 0.00 | 0.06 | 0.01 | 91 | 1013.6 |
| 20260507214055 | 62 | 20 | 27.0 | 42.0 | 0.00 | 0.06 | 0.01 | 91 | 1013.8 |
| 20260507213051 | 62 | 5 | 28.0 | 38.0 | 0.00 | 0.06 | 0.01 | 91 | 1013.8 |
| 20260507212048 | 62 | 334 | 23.0 | 33.0 | 0.00 | 0.06 | 0.01 | 90 | 1014.1 |
| 20260507211044 | 62 | 351 | 23.0 | 31.0 | 0.00 | 0.06 | 0.01 | 90 | 1014.2 |
| 20260507210042 | 62 | 5 | 26.0 | 41.0 | 0.00 | 0.06 | 0.01 | 91 | 1014.2 |
| 20260507205038 | 62 | 357 | 21.0 | 34.0 | 0.00 | 0.06 | 0.01 | 92 | 1014.4 |
| 20260507204034 | 62 | 4 | 20.0 | 31.0 | 0.00 | 0.06 | 0.01 | 91 | 1014.3 |
| 20260507203052 | 62 | 356 | 20.0 | 32.0 | 0.00 | 0.06 | 0.01 | 91 | 1014.3 |
| 20260507202027 | 62 | 355 | 23.0 | 33.0 | 0.00 | 0.06 | 0.01 | 91 | 1014.4 |
| 20260507201024 | 62 | 352 | 23.0 | 43.0 | 0.00 | 0.06 | 0.01 | 91 | 1014.4 |
| 20260507200103 | 62 | 351 | 25.0 | 39.0 | 0.00 | 0.06 | 0.01 | 91 | 1014.3 |
| 20260507195016 | 62 | 3 | 22.0 | 30.0 | 0.00 | 0.06 | 0.01 | 91 | 1014.3 |
| 20260507194113 | 62 | 352 | 23.0 | 34.0 | 0.00 | 0.06 | 0.01 | 91 | 1014.5 |
| 20260507193130 | 62 | 351 | 20.0 | 37.0 | 0.00 | 0.06 | 0.01 | 91 | 1014.5 |
| 20260507192106 | 62 | 12 | 25.0 | 33.0 | 0.00 | 0.06 | 0.01 | 91 | 1014.5 |
| 20260507191103 | 62 | 15 | 21.0 | 36.0 | 0.00 | 0.06 | 0.01 | 90 | 1014.6 |
| 20260507190059 | 63 | 342 | 24.0 | 34.0 | 0.00 | 0.06 | 0.01 | 90 | 1014.6 |
| 20260507185056 | 63 | 0 | 24.0 | 36.0 | 0.00 | 0.06 | 0.01 | 91 | 1014.7 |
| 20260507184117 | 62 | 0 | 25.0 | 34.0 | 0.00 | 0.06 | 0.01 | 91 | 1014.8 |
| 20260507183048 | 62 | 4 | 24.0 | 36.0 | 0.00 | 0.06 | 0.01 | 91 | 1014.9 |
| 20260507182045 | 62 | 353 | 22.0 | 37.0 | 0.00 | 0.06 | 0.01 | 91 | 1015.0 |
| 20260507181042 | 63 | 356 | 21.0 | 31.0 | 0.00 | 0.06 | 0.01 | 91 | 1015.0 |
| 20260507180039 | 62 | 323 | 22.0 | 38.0 | 0.00 | 0.06 | 0.01 | 91 | 1015.1 |
| 20260507175034 | 63 | 352 | 24.0 | 37.0 | 0.00 | 0.06 | 0.01 | 91 | 1015.0 |
| 20260507174031 | 63 | 17 | 25.0 | 35.0 | 0.00 | 0.06 | 0.01 | 92 | 1015.0 |
| 20260507173027 | 62 | 17 | 24.0 | 34.0 | 0.00 | 0.06 | 0.01 | 92 | 1015.1 |
| 20260507172045 | 62 | 354 | 24.0 | 40.0 | 0.00 | 0.06 | 0.01 | 93 | 1015.2 |
| 20260507171021 | 62 | 349 | 22.0 | 32.0 | 0.00 | 0.06 | 0.01 | 93 | 1015.3 |
| 20260507170019 | 62 | 8 | 24.0 | 35.0 | 0.00 | 0.06 | 0.01 | 94 | 1015.4 |
| 20260507165116 | 62 | 347 | 20.0 | 32.0 | 0.00 | 0.06 | 0.01 | 94 | 1015.4 |
| 20260507164110 | 62 | 357 | 23.0 | 32.0 | 0.00 | 0.06 | 0.01 | 94 | 1015.6 |
| 20260507163107 | 62 | 0 | 22.0 | 35.0 | 0.00 | 0.06 | 0.01 | 95 | 1015.6 |
| 20260507162105 | 62 | 21 | 23.0 | 33.0 | 0.00 | 0.06 | 0.01 | 95 | 1015.6 |
| 20260507161059 | 62 | 0 | 21.0 | 27.0 | 0.00 | 0.06 | 0.01 | 96 | 1015.7 |
| 20260507160057 | 62 | 0 | 20.0 | 25.0 | 0.00 | 0.06 | 0.01 | 96 | 1015.6 |
| 20260507155052 | 62 | 348 | 20.0 | 28.0 | 0.00 | 0.06 | 0.01 | 96 | 1015.9 |
| 20260507154109 | 62 | 351 | 21.0 | 30.0 | 0.00 | 0.06 | 0.01 | 96 | 1016.0 |
| 20260507153045 | 62 | 16 | 21.0 | 32.0 | 0.00 | 0.06 | 0.01 | 96 | 1016.1 |
| 20260507152042 | 62 | 356 | 23.0 | 30.0 | 0.00 | 0.06 | 0.01 | 96 | 1016.3 |
| 20260507151040 | 62 | 348 | 22.0 | 36.0 | 0.00 | 0.06 | 0.01 | 96 | 1016.4 |
| 20260507150035 | 62 | 2 | 22.0 | 35.0 | 0.00 | 0.06 | 0.01 | 96 | 1016.5 |
| 20260507145054 | 62 | 358 | 19.0 | 27.0 | 0.00 | 0.06 | 0.01 | 96 | 1016.7 |
| 20260507144028 | 62 | 331 | 23.0 | 35.0 | 0.00 | 0.06 | 0.01 | 96 | 1016.7 |
| 20260507143045 | 62 | 329 | 22.0 | 30.0 | 0.00 | 0.06 | 0.01 | 97 | 1016.8 |
| 20260507142020 | 62 | 315 | 21.0 | 26.0 | 0.00 | 0.06 | 0.01 | 97 | 1017.0 |
| 20260507141038 | 62 | 315 | 21.0 | 26.0 | 0.00 | 0.06 | 0.01 | 97 | 1017.2 |
| 20260507140115 | 62 | 315 | 27.0 | 33.0 | 0.00 | 0.06 | 0.01 | 98 | 1017.3 |
| 20260507135110 | 62 | 341 | 25.0 | 33.0 | 0.00 | 0.06 | 0.01 | 98 | 1017.4 |
| 20260507134109 | 62 | 330 | 22.0 | 33.0 | 0.00 | 0.06 | 0.01 | 99 | 1017.5 |
| 20260507133103 | 62 | 348 | 22.0 | 40.0 | 0.00 | 0.06 | 0.01 | 99 | 1017.7 |
| 20260507132059 | 61 | 350 | 22.0 | 33.0 | 0.00 | 0.06 | 0.01 | 99 | 1017.7 |
| 20260507131056 | 61 | 357 | 21.0 | 34.0 | 0.01 | 0.06 | 0.01 | 99 | 1018.0 |
| 20260507130115 | 61 | 342 | 18.0 | 27.0 | 0.01 | 0.06 | 0.01 | 99 | 1018.1 |
| 20260507125049 | 61 | 10 | 18.0 | 27.0 | 0.01 | 0.06 | 0.01 | 99 | 1018.1 |
| 20260507124047 | 61 | 6 | 20.0 | 31.0 | 0.02 | 0.06 | 0.01 | 99 | 1018.2 |
| 20260507123042 | 61 | 352 | 18.0 | 27.0 | 0.02 | 0.06 | 0.01 | 98 | 1018.2 |
| 20260507122041 | 61 | 352 | 22.0 | 30.0 | 0.04 | 0.06 | 0.01 | 98 | 1018.2 |
| 20260507121034 | 61 | 3 | 20.0 | 30.0 | 0.02 | 0.05 | 0.00 | 97 | 1018.2 |
| 20260507120031 | 61 | 356 | 21.0 | 30.0 | 0.02 | 0.05 | 0.00 | 97 | 1018.3 |
| 20260507115030 | 61 | 343 | 22.0 | 34.0 | 0.04 | 0.05 | 0.05 | 96 | 1018.3 |
| 20260507114104 | 61 | 338 | 21.0 | 37.0 | 0.02 | 0.04 | 0.04 | 95 | 1018.5 |
| 20260507113042 | 61 | 358 | 21.0 | 31.0 | 0.04 | 0.04 | 0.04 | 95 | 1018.6 |
| 20260507112017 | 61 | 350 | 22.0 | 32.0 | 0.02 | 0.02 | 0.02 | 94 | 1018.8 |
| 20260507111114 | 61 | 341 | 21.0 | 34.0 | 0.02 | 0.02 | 0.02 | 94 | 1018.9 |
| 20260507110110 | 61 | 1 | 20.0 | 33.0 | 0.02 | 0.02 | 0.02 | 93 | 1018.9 |
| 20260507105107 | 61 | 13 | 21.0 | 33.0 | 0.01 | 0.01 | 0.01 | 92 | 1018.9 |
| 20260507104103 | 61 | 350 | 20.0 | 32.0 | 0.01 | 0.01 | 0.01 | 90 | 1018.9 |
| 20260507103102 | 62 | 348 | 22.0 | 36.0 | 0.00 | 0.00 | 0.00 | 89 | 1019.2 |
| 20260507102056 | 62 | 353 | 21.0 | 29.0 | 0.00 | 0.00 | 0.00 | 88 | 1019.3 |
| 20260507101117 | 62 | 348 | 21.0 | 29.0 | 0.00 | 0.00 | 0.00 | 89 | 1019.5 |
| 20260507100050 | 0 | 0.0 | 0.0 | 0.00 | 0.00 | 0.00 | 1019.6 | ||
| 20260507095046 | 62 | 0 | 21.0 | 22.0 | 0.00 | 0.00 | 0.00 | 90 | 1019.5 |
| 20260507094042 | 62 | 7 | 19.0 | 28.0 | 0.00 | 0.00 | 0.00 | 90 | 1019.5 |
| 20260507093041 | 62 | 8 | 20.0 | 27.0 | 0.00 | 0.00 | 0.00 | 90 | 1019.4 |
| 20260507092037 | 62 | 349 | 19.0 | 28.0 | 0.00 | 0.00 | 0.00 | 90 | 1019.3 |
| 20260507091032 | 62 | 351 | 19.0 | 31.0 | 0.00 | 0.00 | 0.00 | 89 | 1019.3 |
| 20260507090028 | 62 | 0 | 18.0 | 23.0 | 0.00 | 0.00 | 0.00 | 86 | 1019.3 |
| 20260507085025 | 62 | 348 | 18.0 | 28.0 | 0.00 | 0.00 | 0.00 | 84 | 1019.2 |
| 20260507084045 | 63 | 359 | 20.0 | 31.0 | 0.00 | 0.00 | 0.00 | 83 | 1019.1 |
| 20260507083019 | 63 | 357 | 23.0 | 36.0 | 0.00 | 0.00 | 0.00 | 83 | 1019.1 |
| 20260507082135 | 63 | 339 | 22.0 | 33.0 | 0.00 | 0.00 | 0.00 | 83 | 1019.1 |
| 20260507081111 | 63 | 355 | 19.0 | 29.0 | 0.00 | 0.00 | 0.00 | 83 | 1019.1 |
| 20260507080110 | 63 | 0 | 21.0 | 31.0 | 0.00 | 0.00 | 0.00 | 83 | 1019.3 |
| 20260507075106 | 63 | 339 | 21.0 | 33.0 | 0.00 | 0.00 | 0.00 | 83 | 1019.4 |
| 20260507074101 | 63 | 1 | 20.0 | 28.0 | 0.00 | 0.00 | 0.00 | 83 | 1019.4 |
| 20260507073057 | 63 | 1 | 24.0 | 34.0 | 0.00 | 0.00 | 0.00 | 82 | 1019.4 |
| 20260507072056 | 63 | 351 | 21.0 | 29.0 | 0.00 | 0.00 | 0.00 | 81 | 1019.3 |
| 20260507071050 | 63 | 351 | 22.0 | 31.0 | 0.00 | 0.00 | 0.00 | 81 | 1019.3 |
| 20260507070047 | 63 | 353 | 20.0 | 30.0 | 0.00 | 0.00 | 0.00 | 80 | 1019.2 |
| 20260507065103 | 63 | 6 | 21.0 | 33.0 | 0.00 | 0.00 | 0.00 | 80 | 1019.0 |
| 20260507064040 | 63 | 16 | 21.0 | 34.0 | 0.00 | 0.00 | 0.00 | 80 | 1018.9 |
| 20260507063036 | 63 | 359 | 21.0 | 32.0 | 0.00 | 0.00 | 0.00 | 80 | 1019.0 |
| 20260507062055 | 63 | 350 | 21.0 | 34.0 | 0.00 | 0.00 | 0.00 | 81 | 1018.9 |
| 20260507061031 | 63 | 354 | 20.0 | 29.0 | 0.00 | 0.00 | 0.00 | 82 | 1018.9 |
| 20260507060026 | 63 | 7 | 21.0 | 29.0 | 0.00 | 0.00 | 0.00 | 82 | 1018.9 |
| 20260507055025 | 63 | 355 | 20.0 | 29.0 | 0.00 | 0.00 | 0.00 | 82 | 1018.9 |
| 20260507054019 | 63 | 337 | 24.0 | 34.0 | 0.00 | 0.00 | 0.00 | 81 | 1018.9 |
| 20260507053015 | 63 | 351 | 20.0 | 31.0 | 0.00 | 0.00 | 0.00 | 82 | 1019.0 |
| 20260507052112 | 63 | 349 | 19.0 | 27.0 | 0.00 | 0.00 | 0.00 | 82 | 1019.1 |
| 20260507051110 | 63 | 348 | 20.0 | 30.0 | 0.00 | 0.00 | 0.00 | 81 | 1019.1 |
| 20260507050107 | 63 | 345 | 17.0 | 24.0 | 0.00 | 0.00 | 0.00 | 81 | 1019.3 |
| 20260507045124 | 63 | 346 | 21.0 | 30.0 | 0.00 | 0.00 | 0.00 | 80 | 1019.2 |
| 20260507044058 | 63 | 360 | 21.0 | 32.0 | 0.00 | 0.00 | 0.00 | 80 | 1019.2 |
| 20260507043054 | 63 | 341 | 20.0 | 30.0 | 0.00 | 0.00 | 0.00 | 78 | 1019.3 |
| 20260507042051 | 63 | 5 | 21.0 | 30.0 | 0.00 | 0.00 | 0.00 | 76 | 1019.4 |
| 20260507041047 | 63 | 352 | 23.0 | 34.0 | 0.00 | 0.00 | 0.00 | 73 | 1019.5 |
| 20260507040044 | 63 | 0 | 21.0 | 30.0 | 0.00 | 0.00 | 0.00 | 73 | 1019.6 |
| 20260507035102 | 64 | 357 | 22.0 | 31.0 | 0.00 | 0.00 | 0.00 | 71 | 1019.6 |
| 20260507034037 | 63 | 356 | 20.0 | 30.0 | 0.00 | 0.00 | 0.00 | 73 | 1019.9 |
| 20260507033033 | 63 | 356 | 20.0 | 32.0 | 0.00 | 0.00 | 0.00 | 73 | 1020.0 |
| 20260507032031 | 64 | 3 | 21.0 | 35.0 | 0.00 | 0.00 | 0.00 | 71 | 1019.9 |
| 20260507031028 | 64 | 354 | 21.0 | 35.0 | 0.00 | 0.00 | 0.00 | 70 | 1020.0 |
| 20260507030043 | 64 | 345 | 20.0 | 30.0 | 0.00 | 0.00 | 0.00 | 70 | 1020.1 |
| 20260507025020 | 64 | 1 | 21.0 | 29.0 | 0.00 | 0.00 | 0.00 | 69 | 1020.3 |
| 20260507024017 | 64 | 351 | 19.0 | 30.0 | 0.00 | 0.00 | 0.00 | 69 | 1020.5 |
| 20260507023134 | 63 | 356 | 23.0 | 36.0 | 0.00 | 0.00 | 0.00 | 70 | 1020.7 |
| 20260507022111 | 63 | 347 | 21.0 | 34.0 | 0.00 | 0.00 | 0.00 | 71 | 1020.9 |
| 20260507021106 | 63 | 356 | 22.0 | 29.0 | 0.00 | 0.00 | 0.00 | 71 | 1021.0 |
| 20260507015059 | 63 | 354 | 20.0 | 36.0 | 0.00 | 0.00 | 0.00 | 71 | 1021.3 |
| 20260507014055 | 63 | 349 | 19.0 | 29.0 | 0.00 | 0.00 | 0.00 | 73 | 1021.4 |
| 20260507013112 | 63 | 353 | 21.0 | 30.0 | 0.00 | 0.00 | 0.00 | 73 | 1021.4 |
| 20260507012048 | 63 | 341 | 20.0 | 29.0 | 0.00 | 0.00 | 0.00 | 74 | 1021.4 |
| 20260507011046 | 63 | 356 | 21.0 | 34.0 | 0.00 | 0.00 | 0.00 | 72 | 1021.5 |
| 20260507005037 | 64 | 354 | 24.0 | 34.0 | 0.00 | 0.00 | 0.00 | 71 | 1022.1 |
| 20260507004033 | 64 | 9 | 22.0 | 31.0 | 0.00 | 0.00 | 0.00 | 71 | 1022.1 |
| 20260507003031 | 63 | 4 | 21.0 | 37.0 | 0.00 | 0.00 | 0.00 | 73 | 1022.4 |
| 20260507002026 | 63 | 359 | 21.0 | 29.0 | 0.00 | 0.00 | 0.00 | 72 | 1022.6 |
| 20260507001024 | 64 | 345 | 21.0 | 33.0 | 0.00 | 0.00 | 0.00 | 71 | 1022.5 |
| 20260507000019 | 64 | 348 | 21.0 | 34.0 | 0.00 | 0.00 | 0.00 | 71 | 1022.5 |
| 20260506235101 | 64 | 357 | 21.0 | 33.0 | 0.00 | 0.00 | 0.00 | 71 | 1022.5 |